Location: Newark
(48.6461°N, 4.3644°W)
Time: 04:46:27
(UTC+00:00)

STARLINK 1065 - Pass Details

Date: 11 December 2019
Orbit: 549 x 550 km, 53.0° (Epoch: 27 January)

Event Time Altitude Azimuth Distance (km) Brightness Sun altitude
Exits shadow 05:07:54 39° 144° (SE) 878 4.8 -27.2°
Drops below altitude 10° 05:10:46 10° 130° (SE) 1,899 7.0 -26.7°
Enters shadow 06:09:20 -65° 319° (NW) 12,163 10.4 -17.2°
